ロニオス彗星

376P/LONEOS (2005)

English version
Home page
Updated on May 27, 2019

---------------------------------------------------------------------

・ プロフィール

符号 376P/2005 GF8
発見日 2005年4月2日
発見光度 17.8等
発見者 Lowell Observatory Near-Earth Object Search

・ 軌道要素

Epoch 2005 Aug. 18.0 TT = JDT 2453600.5
T 2005 Aug. 17.52103 TT                                 MPCW
q   2.8295406            (2000.0)            P               Q
n   0.06956035     Peri.  285.33312     -0.49226806     +0.87032064
a   5.8554669      Node   315.16747     -0.79044283     -0.45400179
e   0.5167694      Incl.    1.18932     -0.36451653     -0.19085168
P  14.17
From 203 observations 2005 Apr. 2-2018 Dec. 6, mean residual 0".5.

・ 星図

・ 光度変化

        m1 = 11.0 + 5 logΔ + 10.0 log r

---------------------------------------------------------------------

軌道要素はM.P.E.C. 2018-X49に掲載されたものです。
星図は StellaNavigator Ver.2.0 for Windows (アストロアーツ 編著 / アスキー出版局刊) で作成したものです。
光度グラフはComet for Windowsで作成したものです。

---------------------------------------------------------------------

Copyright(C) Seiichi Yoshida (comet@aerith.net). All rights reserved.